TimePST,TemperatureF,Dew PointF,Humidity,Sea Level PressureIn,VisibilityMPH,Wind Direction,Wind SpeedMPH,Gust SpeedMPH,PrecipitationIn,Events,Conditions,WindDirDegrees,DateUTC
12:53 AM,35.1,34.0,96,29.87,9.0,Calm,Calm,-,0.01,,Overcast,0,2012-11-09 08:53:00
1:53 AM,34.0,33.1,96,29.87,10.0,ENE,5.8,-,N/A,,Mostly Cloudy,70,2012-11-09 09:53:00
2:00 AM,33.8,33.8,100,29.86,2.0,ENE,6.9,-,N/A,,Mostly Cloudy,70,2012-11-09 10:00:00
2:03 AM,33.8,33.8,100,29.86,0.8,ENE,8.1,-,N/A,,Mostly Cloudy,70,2012-11-09 10:03:00
2:09 AM,33.8,33.8,100,29.86,0.2,ENE,5.8,-,N/A,Fog,Fog,60,2012-11-09 10:09:00
2:18 AM,33.8,33.8,100,29.86,1.0,ENE,4.6,-,N/A,,Overcast,60,2012-11-09 10:18:00
2:23 AM,33.8,33.8,100,29.86,3.0,ENE,4.6,-,N/A,,Mostly Cloudy,60,2012-11-09 10:23:00
2:43 AM,33.8,33.8,100,29.86,8.0,ENE,5.8,-,N/A,,Overcast,60,2012-11-09 10:43:00
2:53 AM,34.0,33.1,96,29.87,8.0,ENE,4.6,-,N/A,,Overcast,60,2012-11-09 10:53:00
3:53 AM,34.0,33.1,96,29.86,9.0,ENE,4.6,-,N/A,,Scattered Clouds,60,2012-11-09 11:53:00
4:53 AM,34.0,34.0,100,29.87,10.0,ENE,4.6,-,N/A,,Mostly Cloudy,60,2012-11-09 12:53:00
5:53 AM,34.0,33.1,96,29.87,10.0,ENE,5.8,-,N/A,,Clear,60,2012-11-09 13:53:00
6:53 AM,34.0,33.1,96,29.88,10.0,ENE,4.6,-,N/A,,Clear,60,2012-11-09 14:53:00
7:53 AM,34.0,34.0,100,29.89,9.0,NE,5.8,-,N/A,,Mostly Cloudy,50,2012-11-09 15:53:00
8:53 AM,36.0,35.1,97,29.89,9.0,ENE,6.9,-,N/A,,Overcast,70,2012-11-09 16:53:00
9:53 AM,37.0,36.0,96,29.89,9.0,ENE,9.2,-,N/A,,Clear,70,2012-11-09 17:53:00
10:53 AM,44.1,39.0,82,29.90,10.0,NE,8.1,-,N/A,,Mostly Cloudy,40,2012-11-09 18:53:00
11:53 AM,46.9,37.9,71,29.89,10.0,ENE,8.1,-,N/A,,Partly Cloudy,60,2012-11-09 19:53:00
12:53 PM,48.0,37.0,66,29.88,10.0,ENE,9.2,-,N/A,,Clear,70,2012-11-09 20:53:00
1:53 PM,48.9,36.0,61,29.88,10.0,ENE,9.2,-,N/A,,Clear,60,2012-11-09 21:53:00
2:53 PM,48.9,35.1,59,29.87,10.0,NE,8.1,-,N/A,,Clear,50,2012-11-09 22:53:00
3:53 PM,46.9,35.1,63,29.88,10.0,ENE,6.9,-,N/A,,Clear,60,2012-11-09 23:53:00
4:53 PM,43.0,35.1,74,29.90,10.0,NNE,5.8,-,N/A,,Clear,20,2012-11-10 00:53:00
5:53 PM,39.9,34.0,79,29.91,10.0,ENE,4.6,-,N/A,,Clear,60,2012-11-10 01:53:00
6:53 PM,39.0,35.1,86,29.92,10.0,NE,5.8,-,N/A,,Overcast,50,2012-11-10 02:53:00
7:53 PM,39.0,34.0,82,29.93,10.0,NE,5.8,-,N/A,,Partly Cloudy,40,2012-11-10 03:53:00
8:53 PM,37.0,34.0,89,29.94,10.0,NE,5.8,-,N/A,,Clear,40,2012-11-10 04:53:00
9:53 PM,36.0,33.1,89,29.95,10.0,NE,4.6,-,N/A,,Clear,40,2012-11-10 05:53:00
10:53 PM,35.1,33.1,92,29.96,10.0,ENE,4.6,-,N/A,,Scattered Clouds,60,2012-11-10 06:53:00
11:53 PM,33.1,32.0,96,29.97,7.0,NE,4.6,-,N/A,,Clear,50,2012-11-10 07:53:00